Location: Aiyekoto
(8.4333°N, 4.3667°E)
Time: 02:10:52
(UTC+00:00)

ADEOS - Pass Details

Date: 07 October 2020
Orbit: 792 x 795 km, 98.9° (Epoch: 20 October)

Event Time Altitude Azimuth Distance (km) Brightness Sun altitude
Rises 04:56:20 0° 342° (NNW) 3,280 6.5 -9.2°
Reaches altitude 10° 04:59:39 10° 319° (NW) 2,352 5.6 -8.4°
Maximum altitude 05:02:29 15° 286° (WNW) 2,029 5.1 -7.7°
Drops below altitude 10° 05:05:19 10° 252° (WSW) 2,355 5.5 -7.0°
Sets 05:08:40 0° 229° (SW) 3,286 6.3 -6.2°
